Simultaneous Nadir Overpasses (SNOs) Predictions

Prediction of SNOs between GOES-17 and TERRA Satellite Orbit:

Table of predicted SNOs for the next 14.0 days since TLE Epoch: 9/10/2022
Index Date Time (GOES-17) GOES-17 Lat,Lon TERRA Lat,Lon Distance(km) Time Diff (sec)
1 09/11/2022 07:10:43 0.06,-137.31 0.87,-133.54 429.16 80
2 09/11/2022 19:29:17 -0.06,-137.31 0.25,-138.69 157.36 80
3 09/13/2022 19:19:42 -0.06,-137.32 -0.42,-135.75 179.32 80
4 09/14/2022 07:41:05 0.06,-137.32 -0.69,-140.94 411.06 80
5 09/16/2022 07:26:09 0.06,-137.32 -0.08,-137.98 75.16 80
6 09/18/2022 07:16:33 0.05,-137.30 0.55,-135.02 260.08 80
7 09/18/2022 19:35:06 -0.05,-137.30 0.57,-140.17 327.16 80
8 09/20/2022 19:25:30 -0.05,-137.28 -0.06,-137.21 7.40 80
9 09/22/2022 19:13:15 -0.04,-137.26 -0.70,-134.26 341.55 80
10 09/23/2022 07:34:37 0.04,-137.25 -0.39,-139.45 249.18 80
